This demonstration page uses our WeatherBlox Daily Observations layout. Learn more.

Left ArrowRight Arrow

41.55636, -103.73856

Hourly Observations for July 20, 2018

Temp ( °F °C ) Dew Point ( °F °C ) Humidity (%) Winds ( mph kmh ) Pressure ( in mb ) Visibility ( mi km ) Precip ( " mm )
12:58 am 00:58 Clear 66 18.8 53 11.6 63 63 ESE 10 17 29.88 1012 10 16 N/A
1:58 am 01:58 Clear 65 18.1 54 12 68 68 SE 7 11 29.88 1012 10 16 N/A
2:58 am 02:58 Clear 64 18 55 12.8 72 72 SE 8 13 29.87 1012 10 16 N/A
3:58 am 03:58 Partly Cloudy 62 16.6 56 13.1 80 80 ENE 6 9 29.89 1012 10 16 N/A
4:58 am 04:58 Mostly Cloudy 62 16.8 58 14.2 85 85 NNE 5 7 29.91 1013 10 16 N/A
5:58 am 05:58 Partly Cloudy 61 16.2 58 14.3 89 89 N N/A 29.93 1013 10 16 N/A
6:58 am 06:58 Cloudy 65 18.6 62 16.6 88 88 N N/A 29.93 1014 10 16 N/A
7:58 am 07:58 Mostly Cloudy with Fog 67 19.5 66 18.7 95 95 NE 8 13 29.97 1015 0 0 N/A
8:58 am 08:58 Cloudy 71 21.4 64 17.6 79 79 NE 12 19 30.01 1016 10 16 N/A
9:58 am 09:58 Mostly Cloudy 74 23.1 65 18.5 75 75 E 9 15 29.99 1016 10 16 N/A
10:58 am 10:58 Mostly Sunny 79 26.2 66 18.8 64 64 E 12 19 29.98 1015 10 16 N/A
11:58 am 11:58 Mostly Sunny 83 28.2 65 18.1 54 54 ESE 10 17 29.99 1016 10 16 N/A
12:58 pm 12:58 Mostly Sunny 85 29.2 64 17.6 50 50 SE 9 15 29.97 1015 10 16 N/A
1:58 pm 13:58 Sunny 86 30.2 56 13.4 36 36 S 5 7 29.96 1015 10 16 N/A
2:58 pm 14:58 Sunny 87 30.5 56 13.6 36 36 SE 7 11 29.94 1014 10 16 N/A
3:58 pm 15:58 Sunny 88 31.3 56 13.5 34 34 E 13 20 29.94 1014 10 16 N/A
4:58 pm 16:58 Sunny 88 31 55 12.9 33 33 ESE 12 19 29.94 1014 10 16 N/A
5:58 pm 17:58 Sunny 86 30.1 58 14.6 39 39 ESE 14 22 29.95 1014 10 16 N/A
6:58 pm 18:58 Sunny 84 28.8 60 15.7 45 45 SE 20 31 29.94 1014 10 16 N/A
7:58 pm 19:58 Sunny 80 26.7 62 16.8 55 55 SE 13 20 29.97 1015 10 16 N/A
8:58 pm 20:58 Clear with Nearby Thunderstorms 76 24.5 65 18.6 70 70 SE 12 19 30.00 1016 10 16 N/A
9:58 pm 21:58 Mostly Cloudy 74 23.2 66 18.8 76 76 SE 12 19 30.02 1017 10 16 N/A
10:58 pm 22:58 Mostly Cloudy 74 23.1 67 19.3 79 79 SE 13 20 29.98 1015 10 16 N/A
11:58 pm 23:58 Mostly Clear 73 22.6 67 19.7 84 84 SSE 14 22 29.99 1016 10 16 N/A

Powered by AerisWeather